Location: Newark
(7.0858°N, 171.3717°E)
Time: 14:46:45
(UTC+00:00)

Courier 1B Rocket - Pass Details

Date: 30 November 2020
Orbit: 920 x 1202 km, 28.2° (Epoch: 20 January)

Event Time Altitude Azimuth Distance (km) Brightness Sun altitude
Rises 15:05:50 0° 251° (WSW) 3,922 - -48.2°
Reaches altitude 10° 15:08:36 10° 255° (WSW) 3,001 - -47.6°
Maximum altitude 15:15:56 57° 333° (NNW) 1,351 - -45.9°
Exits shadow 15:22:45 14° 49° (NE) 2,855 7.6 -44.4°
Drops below altitude 10° 15:23:35 10° 51° (NE) 3,122 7.8 -44.2°
Sets 15:26:31 0° 55° (NE) 4,090 8.6 -43.5°
